Namest Nad Oslav, Czech Republic

7:03 AM CET on December 10, 2019 (GMT +0100)
Namest

Weather History for LKNA - August, 2019

Change the Weather History Date:

Friday, August 30, 2019

  Actual Average Record
Temperature  
Mean Temperature 74 °F -  
Max Temperature 84 °F - - ()
Min Temperature 64 °F - - ()
Cooling Degree Days 9    
Growing Degree Days 24 (Base 50)    
Moisture  
Dew Point 58 °F    
Average Humidity 57    
Maximum Humidity 88    
Minimum Humidity 28    
Precipitation  
Precipitation 0.01 in - - ()
Sea Level Pressure  
Sea Level Pressure 30.17 in    
Wind  
Wind Speed 5 mph ()    
Max Wind Speed 10 mph    
Max Gust Speed -    
Visibility 15.3 miles    
Events Rain    
T = Trace of Precipitation, MM = Missing Value Source: Averaged Metar Reports

Daily Weather History Graph

Daily Weather History Graph

Search for Another Location

Airport or City:

Astronomy

Aug. 30, 2019 Rise Set
Actual Time 6:08 AM CEST 7:43 PM CEST
Civil Twilight 5:34 AM CEST 8:16 PM CEST
Nautical Twilight 4:54 AM CEST 8:56 PM CEST
Astronomical Twilight 4:09 AM CEST 9:41 PM CEST
Moon 5:39 AM CEST (8/30) 8:10 PM CEST (8/30)
Length of Visible Light 14h 41m
Length of Day
13h 35m
Waning Crescent, 0% of the Moon is Illuminated
Aug 30
Waning Crescent
Aug 30
New
Sep 6
First Quarter
Sep 14
Full
Sep 22
Last Quarter

Hourly Weather History & Observations

Time (CEST) Temp. Heat Index Dew Point Humidity Pressure Visibility Wind Dir Wind Speed Gust Speed Precip Events Conditions
12:00 AM 69.8 °F - 57.2 °F 64% 30.15 in - North 9.2 mph - N/A   Clear
12:12 AM 68.0 °F - 59.0 °F 73% 30.18 in 4.3 mi West 8.1 mph - N/A Rain Light Rain
1:00 AM 65 °F - 61 °F 83% 30.14 in 12 mi South 4.5 mph - - Rain Light Rain
1:00 AM 64.4 °F - 60.8 °F 88% 30.15 in - South 6.9 mph - N/A   Clear
2:00 AM 67 °F - 58 °F 65% 30.15 in 12 mi West 8.9 mph - -   Partly Cloudy
2:00 AM 64.4 °F - 60.8 °F 88% 30.18 in - West 6.9 mph - N/A   Clear
3:00 AM 66.2 °F - 57.2 °F 73% 30.18 in - North 4.6 mph - N/A   Clear
4:00 AM 66 °F - 57 °F 65% 30.14 in 19 mi NNW 8.9 mph - -   Scattered Clouds
4:00 AM 66.2 °F - 59.0 °F 78% 30.18 in - NNW 8.1 mph - N/A   Clear
5:00 AM 65 °F - 56 °F 66% 30.15 in 19 mi North 4.5 mph - -   Scattered Clouds
6:00 AM 64.4 °F - 59.0 °F 83% 30.18 in - NW 10.4 mph - N/A   Clear
7:00 AM 64.4 °F - 59.0 °F 83% 30.21 in - NNW 3.5 mph - N/A   Clear
8:00 AM 66 °F - 57 °F 66% 30.19 in 12 mi NNW 6.7 mph - -   Mostly Cloudy
8:00 AM 66.2 °F - 59.0 °F 78% 30.21 in - NNW 6.9 mph - N/A   Clear
9:00 AM 68.0 °F - 60.8 °F 78% 30.21 in - NNW 4.6 mph - N/A   Clear
10:00 AM 73 °F - 59 °F 51% 30.18 in 16 mi East 2.2 mph - -   Mostly Cloudy
10:00 AM 71.6 °F - 60.8 °F 69% 30.24 in - Variable 1.2 mph - N/A   Clear
11:00 AM 75.2 °F - 59.0 °F 57% 30.24 in - Variable 2.3 mph - N/A   Clear
12:00 PM 78.8 °F - 59.0 °F 51% 30.21 in - Variable 2.3 mph - N/A   Clear
1:00 PM 80 °F - 58 °F 36% 30.15 in 19 mi NE 4.5 mph - -   Scattered Clouds
1:00 PM 80.6 °F 81.1 °F 59.0 °F 48% 30.21 in - NE 4.6 mph - N/A   Clear
2:00 PM 81 °F - 55 °F 30% 30.14 in 19 mi WNW 2.2 mph - -   Scattered Clouds
2:00 PM 80.6 °F 80.8 °F 57.2 °F 45% 30.21 in - WNW 5.8 mph - N/A   Clear
3:00 PM 82 °F - 56 °F 30% 30.12 in 19 mi NNW 6.7 mph - -   Scattered Clouds
3:00 PM 82.4 °F 81.7 °F 55.4 °F 39% 30.18 in - Variable 2.3 mph - N/A   Clear
4:00 PM 82 °F - 54 °F 28% 30.11 in 19 mi North 6.7 mph - -   Partly Cloudy
4:00 PM 84.2 °F 83.5 °F 57.2 °F 40% 30.18 in - Variable 2.3 mph - N/A   Clear
5:00 PM 82 °F - 54 °F 28% 30.10 in 19 mi NNE 4.5 mph - -   Partly Cloudy
5:00 PM 82.4 °F 81.7 °F 55.4 °F 39% 30.18 in - NNE 5.8 mph - N/A   Clear
6:00 PM 80 °F - 57 °F 35% 30.11 in 19 mi ENE 4.5 mph - -   Mostly Cloudy
7:00 PM 77.0 °F - 59.0 °F 54% 30.18 in - West 3.5 mph - N/A   Clear
8:00 PM 77.0 °F - 57.2 °F 50% 30.18 in - North 4.6 mph - N/A   Clear
9:00 PM 73 °F - 56 °F 45% 30.16 in 12 mi NNE 4.5 mph - -   Partly Cloudy
9:00 PM 75.2 °F - 57.2 °F 53% 30.21 in - NE 4.6 mph - N/A   Clear
10:00 PM 73 °F - 56 °F 46% 30.15 in 12 mi North 4.5 mph - -   Mostly Cloudy
10:00 PM 73.4 °F - 57.2 °F 57% 30.21 in - NNE 3.5 mph - N/A   Clear
11:00 PM 71 °F - 58 °F 54% 30.14 in 12 mi NNW 4.5 mph - -   Partly Cloudy
11:00 PM 71.6 °F - 59.0 °F 64% 30.18 in - North 3.5 mph - N/A   Clear